EHI
0 0 0 0 0 1 0 0 1 2 2 4 7 11 14 14 10 9 9 10 13 17 18 16 15 15 15 16 17 14 10 8 7 6 5 6 8 7 5 3 3 3 4 4
0 0 0 0 0 1 2 3 4 5 4 5 8 13 16 16 12 8 7 8 11 14 16 15 15 16 17 18 18 16 11 8 8 6 5 7 8 7 5 3 3 3 4 4
0 0 0 0 0 2 5 7 8 8 7 7 11 16 17 15 13 10 7 7 9 11 12 13 15 17 18 19 19 16 11 8 7 6 6 6 7 6 5 3 3 3 4 5
0 0 0 0 0 2 5 8 9 10 9 10 14 18 16 14 13 11 10 10 10 10 10 12 14 16 17 18 19 17 12 10 9 8 8 7 7 6 5 4 4 4 5 5
0 0 0 0 0 1 5 6 8 11 13 15 18 20 18 16 14 12 12 13 13 12 11 12 14 16 16 17 18 17 14 14 13 12 9 7 7 8 6 5 5 6 5 4
0 0 0 0 0 2 4 5 7 12 16 18 19 19 19 19 17 14 13 15 17 16 14 13 15 16 16 17 18 17 16 17 16 14 11 9 8 8 8 7 6 5 3 2
0 0 0 0 1 2 2 4 7 11 15 16 15 14 15 18 18 14 14 16 17 17 15 15 15 16 16 17 18 18 18 17 16 15 13 11 10 8 8 7 5 2 1 1
0 0 0 1 3 2 3 4 6 9 12 13 12 11 10 12 13 12 14 16 15 14 14 13 14 14 15 17 19 19 19 18 16 14 14 14 12 9 6 5 3 1 0 0
2 2 2 3 3 3 4 5 6 7 9 10 9 7 6 5 7 9 12 13 12 11 11 10 11 12 14 17 20 21 21 19 16 15 14 15 13 9 5 3 1 0 0 0
8 7 6 4 3 3 4 4 5 6 6 6 5 4 2 2 4 5 6 7 8 9 8 8 8 9 11 15 20 23 22 19 16 15 14 13 12 8 5 3 1 1 0 0
10 9 7 5 4 4 5 5 4 4 4 4 3 3 2 2 3 2 1 2 4 6 6 6 6 6 8 12 18 21 20 18 16 13 10 10 10 8 5 3 2 1 0 0
7 7 5 4 3 4 6 7 4 3 4 4 4 4 3 3 3 1 0 1 3 4 4 5 5 5 6 8 13 15 15 15 13 10 7 7 8 6 3 2 1 1 0 0
3 4 4 3 2 3 5 6 4 2 3 5 6 5 4 3 2 1 1 2 3 3 3 4 4 4 4 5 6 8 10 11 9 7 4 4 6 5 3 1 0 0 0 0
1 2 2 1 1 1 2 3 3 2 3 5 6 6 5 3 1 2 2 3 3 3 3 3 3 3 3 3 3 5 7 7 6 4 3 3 4 4 3 1 0 0 0 0
0 1 1 0 0 1 1 2 2 2 3 4 4 4 4 3 2 3 3 3 3 3 3 3 3 3 3 4 4 6 6 5 4 3 3 3 3 4 3 2 0 0 0 0
0 0 0 0 0 1 2 2 1 1 2 2 2 1 2 2 3 3 3 3 3 3 3 3 3 3 4 5 6 6 6 3 1 1 1 3 3 3 2 1 0 0 0 0
0 0 0 0 0 0 1 2 1 0 1 1 1 0 0 1 1 2 3 3 3 3 3 3 3 3 3 4 6 6 5 2 0 0 1 2 2 1 1 1 0 0 0 0
0 0 0 0 0 0 1 2 2 1 0 0 0 0 0 0 0 1 3 3 3 3 3 3 3 3 3 4 5 5 4 2 1 0 0 1 1 0 0 0 0 0 0 0
0 0 0 0 0 0 0 1 2 1 0 0 0 0 0 0 0 1 3 4 3 3 3 3 3 3 3 4 5 5 3 2 1 0 0 0 0 0 0 0 0 0 0 0
1 1 0 0 0 0 0 1 2 2 0 0 0 0 0 0 0 1 3 3 2 3 3 3 3 3 3 3 4 4 2 1 0 0 0 0 0 0 0 0 0 0 0 0
0 0 0 0 0 0 0 1 1 1 0 0 0 0 0 0 0 1 1 1 1 1 2 3 3 3 3 3 3 2 1 0 0 0 0 0 0 0 0 0 0 0 0 0
0 0 0 0 0 0 0 0 0 0 0 0 1 1 0 0 0 0 0 0 0 0 1 1 2 3 2 2 2 1 0 0 0 0 0 0 0 0 0 0 0 0 0 0
0 0 0 0 0 0 0 0 0 0 0 1 2 2 1 1 1 1 0 0 0 0 0 1 1 1 1 1 1 0 0 0 0 0 0 0 0 0 0 0 0 0 0 0
0 0 0 0 0 0 0 0 0 0 1 1 3 3 3 2 2 2 1 1 0 0 0 0 0 0 0 0 0 0 0 0 0 0 0 0 0 0 0 0 0 0 0 0
0 0 0 0 0 0 0 0 1 1 2 3 3 3 3 3 3 3 3 2 1 0 0 0 0 0 0 0 0 0 0 0 0 0 0 0 0 0 0 0 0 0 0 0
0 0 0 0 0 0 0 0 1 2 3 3 3 3 3 3 3 3 3 3 1 0 0 0 0 0 0 0 0 0 0 0 0 0 0 0 0 0 0 0 0 0 0 0
0 0 0 0 0 0 0 0 1 3 3 3 3 3 3 3 3 3 3 3 2 1 0 0 0 0 0 0 0 0 0 0 0 0 0 0 0 0 0 0 0 0 0 0
Wind_Speed
4 4 1 1 1 1 3 6 6 6 6 5 5 6 6 5 6 6 4 4 4 3 3 4 4 4 5 4 4 4 4 4 3 3 2 2 2 2 2 2 2 2 2 1
2 1 2 2 3 1 2 2 5 5 2 3 3 5 5 5 7 6 5 5 5 5 4 4 4 4 5 5 4 4 4 4 3 2 2 2 2 2 2 1 1 1 2 2
2 3 3 2 2 1 2 2 6 6 5 5 5 5 5 6 6 6 5 5 4 4 4 3 3 4 5 6 4 4 3 3 3 3 2 2 2 2 2 2 2 1 1 2
1 3 1 6 2 2 4 2 2 4 7 8 7 5 3 5 6 5 4 5 4 3 3 2 2 2 3 5 5 4 3 3 3 3 2 2 1 1 1 1 1 2 2 2
3 2 3 4 2 2 3 1 1 6 7 6 7 6 3 2 3 4 5 5 3 3 3 2 2 2 3 3 3 3 2 2 3 3 3 2 2 2 2 1 1 1 1 2
3 3 4 5 4 0 5 1 2 5 7 7 6 3 2 1 3 4 4 3 4 3 4 4 2 3 4 3 3 2 2 3 3 3 3 3 3 2 1 1 1 1 1 1
3 3 5 4 3 2 3 6 3 4 6 6 4 5 4 3 3 5 5 5 4 5 4 2 2 3 3 3 3 3 2 1 2 2 3 3 2 2 1 1 1 1 1 1
3 3 6 3 2 3 5 3 5 5 6 6 5 6 6 4 4 5 5 5 5 4 3 2 2 3 3 2 1 1 1 1 1 1 2 2 2 1 1 2 2 1 1 1
5 5 3 1 2 0 2 4 3 4 5 7 7 6 5 4 4 5 5 4 4 4 3 2 2 2 3 1 1 2 2 1 0 1 1 2 2 2 1 1 2 1 1 0
2 1 1 3 4 3 3 3 3 5 6 7 7 6 4 3 4 4 3 4 4 5 4 2 2 2 1 1 2 2 2 1 1 1 1 1 1 2 2 2 2 2 1 1
1 1 2 3 2 2 3 4 5 6 6 7 8 6 5 4 4 3 3 3 4 4 3 2 0 1 1 2 2 2 2 2 1 1 1 1 1 1 1 2 3 3 2 2
4 4 2 2 0 3 4 4 5 6 5 5 6 6 5 4 3 3 3 3 4 3 2 2 1 0 1 1 2 2 2 1 1 1 1 1 1 1 4 2 2 3 3 3
3 2 2 1 2 3 3 5 5 5 5 4 3 5 5 4 3 3 3 3 3 3 2 2 1 1 1 0 1 2 2 1 1 1 1 1 1 2 1 3 3 2 2 2
4 4 4 2 2 1 4 6 6 5 4 3 3 4 4 4 3 3 3 3 3 3 2 2 2 1 1 0 1 1 1 1 1 1 1 1 1 2 2 2 1 1 2 1
2 3 4 3 2 3 5 7 7 5 5 4 4 4 4 4 4 3 2 2 3 3 2 2 1 1 1 1 1 1 1 1 1 1 1 1 1 1 2 2 1 1 1 1
2 3 4 4 3 3 5 7 6 4 4 4 4 4 4 4 3 2 2 3 3 2 2 2 2 2 1 1 1 1 0 1 1 1 1 1 1 1 1 1 1 1 1 1
4 3 4 4 3 3 4 5 5 4 4 4 5 4 4 4 4 2 1 2 3 3 2 2 2 2 1 1 2 1 1 1 1 1 1 1 1 2 2 2 2 2 2 2
4 4 5 6 5 5 5 5 5 5 4 4 5 5 4 4 3 3 2 2 2 1 0 1 2 2 1 1 1 1 1 1 1 1 1 1 1 2 2 1 1 1 1 1
5 5 5 5 5 6 5 5 5 5 5 5 5 4 3 3 3 2 2 3 3 1 2 1 2 2 1 1 1 1 1 1 1 1 1 1 1 1 1 2 2 2 2 1
5 6 6 5 5 6 5 5 5 5 5 5 4 4 3 2 2 3 2 2 2 3 3 2 2 2 1 2 1 1 1 1 1 1 1 1 1 1 1 2 2 1 1 1
6 5 6 6 5 5 5 5 5 4 3 4 4 4 3 2 2 2 2 1 3 2 2 3 2 2 2 2 1 1 1 0 1 1 1 1 1 1 1 1 1 1 1 1
5 5 6 6 6 4 3 3 4 4 3 2 3 3 3 2 1 1 2 3 3 3 2 2 2 2 2 2 1 1 1 1 1 1 1 2 2 1 1 1 1 1 1 1
5 5 6 5 5 4 3 3 3 3 2 2 2 2 3 2 2 2 2 2 2 3 2 2 2 2 2 1 1 1 1 1 1 1 1 1 1 1 1 1 1 1 1 1
4 4 4 4 4 4 3 1 1 1 2 2 2 3 3 2 1 2 2 2 3 3 2 2 3 2 2 1 1 1 1 1 1 1 1 1 1 1 1 1 1 1 1 1
4 4 4 4 3 2 1 1 1 1 1 1 1 1 2 2 2 2 2 2 3 3 2 2 3 2 1 1 1 1 1 1 1 1 1 1 1 1 1 1 1 1 1 1
3 3 2 2 2 1 1 1 1 1 1 1 1 1 1 1 1 2 2 2 3 3 2 2 2 2 1 1 1 1 1 1 1 1 1 1 2 1 1 1 1 1 1 1
2 2 1 1 0 1 1 1 2 2 2 2 2 2 1 1 1 1 2 2 2 2 2 2 2 2 1 1 1 1 1 1 1 1 1 1 1 1 1 1 1 0 0 1
Wind_Direction
207 222 146 51 275 212 157 173 170 193 182 198 192 164 152 139 137 125 123 123 130 145 151 135 124 142 151 148 156 162 154 160 181 185 171 170 173 184 206 231 215 201 183 186
328 310 68 25 348 101 130 135 143 135 182 206 154 121 121 124 129 139 151 154 148 144 140 142 140 145 151 156 167 158 162 174 177 166 162 172 176 185 189 200 216 182 174 169
283 309 57 341 285 145 135 154 157 175 190 143 125 131 148 148 135 141 148 153 153 151 150 157 161 151 156 161 160 166 176 175 171 164 163 182 178 154 183 204 203 202 193 180
112 43 199 246 259 109 103 66 135 142 148 150 148 149 149 140 135 140 140 138 148 150 142 146 141 133 140 151 156 164 168 173 170 165 171 177 169 177 203 202 199 201 196 200
113 139 262 282 282 131 112 322 147 135 142 131 115 85 66 98 130 151 158 150 137 137 140 127 105 100 108 121 133 139 158 180 182 174 173 174 184 201 205 190 205 213 190 190
128 148 220 245 271 163 96 274 256 144 149 146 125 118 206 137 110 116 106 108 114 109 94 90 89 103 113 129 132 154 192 200 189 173 168 176 193 199 190 173 195 181 137 175
156 190 251 256 277 80 149 227 212 167 157 151 155 165 161 128 104 112 104 97 103 104 97 106 109 106 114 138 168 196 192 176 172 175 178 176 179 183 162 153 123 92 94 62
151 180 248 281 74 160 208 177 150 146 139 126 121 121 123 119 112 104 100 94 97 104 97 96 101 112 116 141 181 154 135 133 169 181 163 144 143 148 146 142 122 105 90 36
180 203 246 76 105 162 123 124 133 136 133 124 122 125 123 127 127 115 109 101 100 110 94 59 67 98 126 154 120 107 113 137 138 122 125 129 137 146 143 137 136 129 123 86
77 356 45 59 65 56 80 105 116 123 131 130 131 135 133 136 120 113 109 104 95 97 90 59 40 61 88 94 108 103 103 96 108 117 114 109 126 150 154 161 154 151 146 151
75 272 34 32 64 79 84 87 107 109 118 129 135 139 136 126 124 130 119 110 110 115 128 139 103 50 52 63 83 91 95 87 82 118 128 126 110 130 160 190 181 170 180 175
218 231 172 224 153 91 98 99 119 115 107 115 127 131 123 119 132 130 127 120 114 121 137 140 111 327 343 51 91 110 105 94 129 163 145 143 129 50 28 50 88 118 136 150
185 182 153 199 78 84 121 119 118 114 120 117 114 124 123 127 139 136 129 126 138 150 152 133 139 232 287 33 88 123 148 164 183 179 155 159 157 147 104 23 38 62 112 138
153 130 111 111 105 100 111 108 103 98 96 102 104 110 115 117 123 128 139 154 145 131 138 136 140 235 274 341 98 138 156 165 178 193 185 175 177 167 156 146 113 345 351 0
139 139 149 140 125 110 104 106 104 107 110 103 107 114 114 121 132 136 139 134 119 113 133 142 155 243 260 171 150 168 159 184 181 176 179 177 172 158 150 150 150 140 41 360
118 105 109 112 121 123 116 118 122 134 134 126 126 131 133 135 134 129 129 134 134 148 171 174 203 236 228 167 160 167 177 155 143 152 152 144 154 153 159 171 177 181 198 214
136 140 137 138 137 126 122 129 137 152 149 141 143 138 129 124 119 118 138 150 148 165 180 186 215 222 190 162 158 183 184 168 135 134 146 167 171 168 171 175 187 200 217 208
164 161 155 145 139 124 116 123 133 141 146 141 133 128 131 139 150 165 170 140 112 89 261 203 183 162 162 169 168 177 166 161 188 188 180 193 198 185 179 187 205 210 226 214
121 124 127 125 126 127 129 136 142 138 135 130 125 127 135 142 149 154 150 133 133 172 257 229 155 136 167 192 154 165 168 166 182 202 187 199 197 195 189 194 206 213 206 197
109 110 116 114 115 121 123 121 116 114 121 124 121 119 120 133 138 130 132 159 201 210 210 188 162 168 189 188 133 146 154 155 161 152 137 142 163 202 199 191 190 196 204 209
117 112 114 116 111 108 115 116 112 112 112 121 129 137 141 151 145 132 132 198 257 222 188 179 185 196 195 183 148 152 151 149 153 162 174 173 168 181 188 192 192 191 194 203
111 107 108 109 110 105 101 102 107 107 102 101 115 125 130 149 155 148 194 204 217 201 181 188 201 202 198 176 161 157 170 177 173 172 185 183 176 183 190 191 189 188 185 185
105 105 108 109 111 112 101 101 107 110 117 128 139 149 162 181 181 176 229 243 205 186 176 192 198 183 168 154 155 163 168 166 165 159 167 176 176 183 187 186 190 184 181 180
100 100 103 107 101 98 94 92 105 118 133 148 163 170 169 176 241 236 203 185 172 161 170 189 183 165 152 161 167 165 153 141 137 143 145 161 164 167 173 165 162 164 170 168
115 111 105 101 101 118 142 126 90 92 108 132 204 217 205 189 196 209 179 170 164 151 150 173 165 176 183 180 155 141 141 147 140 136 133 137 142 132 116 115 137 148 154 172
126 129 137 150 165 179 174 144 153 185 181 200 251 252 249 227 171 159 157 164 160 158 163 175 170 172 189 175 157 146 135 131 119 107 125 133 136 137 129 123 141 155 161 156
107 107 101 77 330 190 180 177 189 212 204 192 217 237 221 198 164 151 142 141 144 156 164 159 158 173 181 163 149 138 126 121 117 112 109 111 117 125 122 128 148 158 147 124